Temperature
12 13 12 12 13 13 13 13 13 13 13 14 14 14 14 14 14 14 14 14 15 15 15 15 15 15 15 15 15 15 15 15 15 15 15 15 15 15 15 15 15 15 14
12 12 12 12 12 13 13 13 13 13 13 13 13 13 14 14 14 14 14 14 14 14 14 14 14 15 15 15 15 15 15 15 14 14 14 14 14 14 14 14 14 14 14
11 12 12 12 12 12 12 13 13 13 13 13 13 13 13 13 14 14 14 14 14 14 14 14 14 14 14 14 15 15 14 14 14 14 14 14 14 14 14 14 14 14 14
11 11 12 12 12 12 12 12 12 12 13 13 13 13 13 13 13 13 13 14 14 14 14 14 14 14 14 14 14 14 14 14 14 14 14 14 14 14 14 14 14 14 14
11 11 11 11 12 12 12 12 12 12 12 12 12 12 12 13 13 13 13 13 13 13 13 13 14 14 14 14 14 14 14 13 13 13 13 13 13 13 13 13 13 14 14
10 11 11 11 11 11 11 12 12 12 12 12 12 12 12 12 12 13 13 13 13 13 13 13 13 13 14 14 14 14 13 13 13 13 13 13 13 13 13 13 13 13 13
10 10 10 11 11 11 11 11 11 11 11 11 11 11 12 12 12 12 12 13 13 13 13 13 13 13 13 13 13 13 13 13 13 13 13 13 13 13 13 13 13 13 13
10 10 10 10 10 11 11 11 11 11 11 11 11 11 11 11 11 12 12 12 12 12 12 13 13 13 13 13 13 13 13 13 13 13 13 13 13 13 13 13 13 13 13
9 10 10 10 10 10 10 10 10 10 11 11 11 11 11 11 11 11 11 11 11 12 12 12 12 13 13 13 13 13 13 12 12 12 12 12 12 12 12 12 12 12 12
9 9 9 9 9 10 10 10 10 10 10 10 10 10 10 10 11 11 11 11 11 11 12 12 12 12 12 12 12 12 12 12 12 12 12 12 12 12 12 12 12 12 12
9 9 9 9 9 9 9 9 9 10 10 10 10 10 10 10 10 10 10 10 11 11 11 11 12 12 12 12 12 12 12 11 11 12 12 12 12 12 12 12 12 12 12
8 8 8 8 9 9 9 9 9 9 9 9 9 9 9 9 9 10 10 10 10 10 11 11 11 11 11 11 11 11 11 11 11 11 11 11 11 11 12 12 12 12 12
8 8 8 8 8 8 8 8 8 8 9 8 8 9 9 9 9 9 9 9 10 10 10 10 10 10 11 11 11 11 11 11 11 11 11 11 11 11 11 11 11 11 11
7 7 7 7 7 8 8 8 8 8 8 8 8 8 8 8 8 8 9 9 9 9 9 9 9 10 10 10 10 10 10 10 10 11 11 11 11 11 11 11 11 11 11
7 7 7 7 7 7 7 7 7 7 7 8 8 7 7 8 8 8 8 8 8 8 8 9 9 9 9 10 10 10 10 10 10 10 10 10 10 10 11 10 11 11 11
7 7 7 7 7 7 7 7 7 7 7 7 7 7 7 7 7 7 7 7 8 8 8 8 8 8 9 9 9 9 9 10 10 10 10 10 10 10 10 10 10 10 10
6 6 6 6 6 6 6 6 6 6 6 6 6 6 6 6 6 6 7 7 7 7 7 7 8 8 8 8 9 9 9 9 9 9 10 10 10 10 10 10 10 10 10
6 6 6 6 6 6 6 6 6 6 6 6 6 6 6 6 6 6 6 6 6 7 7 7 7 7 7 8 8 8 8 8 9 9 9 9 9 10 10 10 10 10 10
5 5 5 5 5 5 5 5 5 5 5 5 5 5 5 5 5 5 5 6 6 6 6 6 6 6 7 7 7 8 8 8 8 9 9 9 9 9 9 9 9 9 9
4 5 5 4 5 4 5 5 5 5 5 5 5 5 5 5 5 5 5 5 5 5 6 6 6 6 6 6 7 7 7 8 8 8 9 9 9 9 9 9 9 9 9
4 4 4 4 4 4 4 4 4 4 4 4 4 4 4 4 4 4 4 4 5 5 5 5 5 5 6 6 6 6 7 7 7 8 8 8 8 8 8 8 8 9 9
3 3 3 3 3 3 3 3 3 3 3 3 3 4 4 4 4 4 4 4 4 4 4 5 5 5 5 5 5 5 6 6 7 7 7 8 8 8 8 8 8 8 8
2 2 3 3 3 3 3 3 3 3 3 3 3 3 3 3 3 3 3 3 3 4 4 4 4 4 5 5 5 5 5 5 6 6 7 7 7 7 7 7 8 8 8
2 2 2 2 2 2 2 2 2 2 2 2 2 2 2 2 2 2 3 3 3 3 3 3 3 3 4 4 4 5 5 5 5 5 6 6 7 7 7 7 7 7 7
1 1 1 1 1 1 1 1 1 1 1 2 2 2 2 2 2 2 2 2 2 2 3 3 3 3 3 3 4 4 4 4 5 5 5 5 6 6 6 7 7 7 7
0 0 1 1 1 1 1 1 1 1 1 1 1 1 1 1 1 1 1 1 1 2 2 2 2 2 2 3 3 3 4 4 4 4 4 5 5 6 6 6 6 6 6
Wind_Speed
6 8 7 8 9 9 10 11 11 12 12 13 13 13 12 11 12 12 12 11 11 11 10 10 10 11 11 12 13 13 13 14 15 16 17 16 16 16 15 15 16 16 18
7 8 8 8 9 10 10 11 11 12 12 12 12 12 13 12 11 12 12 12 12 11 11 10 10 11 11 11 12 12 12 13 14 15 16 16 15 15 15 15 16 15 17
7 9 8 9 9 10 11 11 12 12 13 13 12 12 12 12 12 12 12 12 12 12 11 11 10 10 10 10 11 11 10 11 11 12 14 13 13 14 14 16 16 16 16
7 9 8 9 10 10 11 11 12 12 12 12 12 12 12 12 12 12 12 12 12 12 11 11 10 9 9 9 10 9 9 9 9 9 11 12 11 13 14 15 15 15 16
8 9 9 9 10 10 11 11 12 12 11 11 12 12 12 12 12 12 12 12 12 12 11 10 10 9 9 9 8 8 7 8 8 10 11 12 11 12 13 14 14 15 15
7 9 9 9 9 10 10 10 11 11 11 11 11 11 11 11 11 11 11 11 11 11 11 10 9 9 8 7 7 6 6 6 6 9 11 12 11 12 13 14 14 14 14
6 9 8 9 9 9 9 9 10 10 10 10 10 10 10 10 10 11 10 10 10 10 10 10 9 8 8 6 6 6 6 5 6 9 10 11 11 12 12 13 13 13 13
7 8 8 8 8 9 9 9 10 10 10 10 9 9 9 9 9 10 10 9 9 9 9 9 9 8 7 6 5 5 4 4 6 8 10 10 10 11 12 12 12 13 12
7 7 7 7 7 8 8 8 9 9 9 9 9 9 9 9 8 8 8 8 8 8 8 8 8 7 6 6 4 3 3 4 6 8 8 8 10 11 11 11 11 11 12
6 5 6 6 7 7 7 8 8 8 8 8 8 8 8 8 8 7 7 7 7 7 7 7 6 6 5 5 4 3 2 3 5 7 7 8 9 10 10 10 10 10 11
4 4 5 5 6 6 6 7 8 7 7 7 6 6 6 6 6 6 7 7 6 6 6 5 5 4 4 3 3 2 3 4 6 7 6 7 8 9 9 9 9 10 10
4 3 4 4 5 5 5 5 5 5 5 5 5 6 5 5 5 5 6 6 6 5 5 4 3 3 4 3 2 2 2 4 6 6 6 7 7 8 8 8 8 9 9
4 3 3 4 4 4 4 4 3 4 4 4 5 5 5 5 4 4 4 4 4 4 3 3 2 2 3 3 3 2 3 4 6 6 6 6 6 7 8 8 8 9 10
4 3 3 4 3 3 4 3 3 3 3 3 4 5 5 4 3 3 3 3 3 3 3 3 3 2 2 3 3 3 3 4 5 6 6 6 6 7 8 8 8 9 9
4 3 3 3 3 3 3 2 3 3 3 4 4 4 4 3 2 3 3 3 3 3 3 3 2 2 2 2 2 3 3 4 5 6 5 6 6 6 7 8 8 8 8
4 3 3 3 3 3 2 2 3 3 3 3 3 3 3 3 3 3 2 3 3 3 3 3 2 2 1 2 2 3 3 3 4 5 5 5 5 6 6 7 8 8 8
4 3 3 3 3 3 2 2 3 2 2 2 2 2 3 3 3 2 2 2 3 3 3 3 2 2 1 2 2 2 3 2 3 3 5 5 5 6 6 6 7 7 8
4 4 3 2 3 2 1 1 2 2 2 2 2 2 2 3 2 2 1 1 2 2 2 1 0 1 1 1 1 1 2 2 2 2 3 4 5 5 5 5 5 7 7
4 4 3 3 3 2 1 1 1 2 2 1 1 1 1 2 2 2 1 1 2 1 1 1 0 0 0 1 1 1 1 1 1 2 3 4 4 5 5 5 6 5 6
4 4 3 3 2 2 2 1 1 1 1 1 1 0 0 0 1 1 1 1 2 1 1 1 0 0 0 0 0 1 1 0 1 2 2 3 3 4 5 5 6 5 5
3 3 3 3 2 2 1 1 1 1 0 0 0 1 1 1 1 0 1 1 1 1 1 1 0 0 0 0 1 1 1 1 2 2 2 2 2 4 5 6 6 5 5
3 3 3 3 2 2 2 1 1 1 1 1 1 0 0 1 1 1 0 1 1 1 1 0 0 1 1 1 1 1 0 1 1 2 2 2 3 3 4 5 5 5 5
2 2 2 2 2 2 2 1 0 0 1 1 1 1 1 1 1 1 1 1 1 1 1 1 1 1 2 2 1 1 2 2 1 1 3 3 3 3 3 4 5 5 5
1 1 2 2 2 2 2 2 2 2 2 2 2 2 2 1 2 2 1 2 1 1 1 2 2 1 2 2 1 1 1 1 1 1 1 2 4 4 4 4 5 5 5
1 1 1 1 2 2 2 3 3 2 2 1 2 2 2 2 2 2 2 2 2 1 2 2 2 2 2 2 2 2 1 1 1 2 2 2 2 2 3 4 4 5 5
0 1 1 1 1 2 2 2 3 3 2 2 2 2 2 2 1 2 2 2 2 2 2 3 3 3 3 3 3 2 2 2 2 2 2 2 2 2 2 3 4 4 5
Wind_Direction
89 85 81 71 65 65 68 69 68 66 64 61 58 57 60 61 60 59 59 59 59 61 67 72 75 79 81 81 79 81 81 84 84 83 81 78 79 81 82 83 82 80 83
101 99 87 78 72 69 70 70 69 68 65 62 59 57 57 60 60 59 60 59 57 57 61 67 75 79 82 85 86 87 88 89 88 88 86 80 79 80 80 81 84 87 86
94 102 92 81 78 76 75 72 71 69 65 62 59 57 57 59 59 58 58 56 55 55 57 61 71 78 81 86 90 93 93 92 89 91 91 86 82 81 81 84 86 88 87
85 94 90 84 81 80 79 75 71 68 65 62 58 56 55 57 58 58 56 54 53 53 54 57 64 73 80 88 93 95 94 92 86 92 91 89 86 87 87 88 88 89 88
79 85 87 85 82 81 80 77 73 69 66 63 59 55 54 54 55 56 55 54 54 52 52 53 59 72 80 87 93 95 93 87 84 94 87 86 87 93 92 90 90 89 89
82 83 88 82 80 83 82 79 76 72 68 65 61 57 54 52 50 53 54 53 55 54 52 53 58 67 79 83 91 97 93 83 85 91 89 90 93 97 95 93 92 90 90
85 84 87 82 77 83 85 81 78 74 69 66 62 58 54 51 49 49 51 52 54 55 54 52 57 65 71 82 87 91 89 85 91 84 84 91 97 101 98 97 95 93 92
85 86 88 89 80 77 82 80 76 73 69 64 61 58 52 49 48 48 49 50 52 54 56 53 53 58 66 77 91 91 86 89 98 92 89 93 102 104 101 99 97 96 94
76 77 76 79 82 80 78 81 80 74 70 64 58 54 50 46 45 44 46 47 51 52 53 53 52 57 60 62 85 105 90 82 83 92 96 96 106 106 105 103 102 100 99
78 72 71 72 75 74 75 72 73 75 71 65 60 55 51 46 43 39 43 45 48 52 50 50 50 55 58 55 58 96 98 84 85 81 89 100 112 113 111 109 108 107 105
90 81 67 66 77 69 73 71 67 73 74 69 63 59 52 48 45 42 44 45 47 48 49 47 44 51 57 56 52 87 99 102 94 84 85 105 118 119 119 117 115 113 109
114 96 69 61 76 75 71 68 64 67 64 59 57 49 46 51 49 47 46 44 40 38 43 43 38 43 54 51 45 98 96 98 97 93 96 112 124 126 123 124 122 120 116
130 108 87 62 70 75 73 71 59 58 55 49 45 39 46 50 50 49 44 42 36 32 30 16 26 40 55 52 45 79 87 90 88 91 106 119 130 135 131 129 128 128 124
136 118 104 69 61 69 73 69 70 59 54 50 40 36 38 41 40 40 43 31 31 19 8 16 23 25 41 61 61 55 74 83 95 94 104 119 130 140 139 139 137 136 130
143 134 114 88 71 65 67 71 64 53 52 53 48 36 34 37 32 35 36 25 27 16 6 10 27 19 21 55 77 66 66 83 103 106 109 120 128 138 148 148 146 141 137
151 134 118 109 90 80 55 60 69 62 56 56 49 36 32 36 36 26 23 21 17 7 3 2 17 12 17 55 67 67 61 70 91 111 121 127 133 134 140 152 149 146 144
147 131 123 125 95 86 66 62 69 71 64 66 54 34 39 40 31 29 22 11 356 353 359 6 18 30 26 38 58 63 63 62 76 108 130 135 140 144 141 141 150 146 145
139 139 137 136 119 106 69 54 74 79 71 62 58 42 45 39 13 27 17 345 334 352 13 341 25 10 358 19 47 53 58 56 79 99 120 131 139 144 150 151 148 150 148
138 143 145 128 128 122 87 71 77 77 64 60 53 49 42 37 0 20 358 335 324 359 360 292 356 54 15 19 54 50 61 21 82 99 106 114 125 133 139 158 160 148 145
133 139 140 128 119 111 86 71 75 81 57 66 64 72 322 346 328 358 345 339 332 294 296 297 16 21 213 238 49 40 38 319 106 105 123 119 128 139 140 146 151 156 150
134 137 141 137 134 131 137 139 169 194 190 268 300 215 261 287 301 356 302 331 330 275 260 251 183 141 345 57 83 42 346 255 196 162 138 131 143 149 149 149 145 147 154
153 153 151 153 155 153 165 191 207 221 234 268 281 56 311 321 310 297 33 274 298 278 275 259 127 220 253 210 151 146 167 269 240 195 173 178 174 150 148 153 151 153 157
163 165 177 170 173 171 161 161 179 23 340 314 291 274 298 290 284 281 249 251 262 269 239 238 228 199 222 252 217 173 172 206 213 211 197 191 186 180 164 157 160 164 163
182 173 177 182 183 185 179 180 188 218 235 264 260 264 285 259 253 259 241 237 236 245 249 243 229 235 208 230 255 273 222 182 175 200 233 206 194 187 188 176 168 171 170
183 177 188 199 202 203 203 198 199 228 247 250 248 257 269 271 237 235 243 241 234 241 243 246 236 235 227 223 232 246 259 278 255 179 220 223 220 211 192 185 174 169 172
51 124 200 215 233 218 223 218 214 227 237 233 238 240 249 254 260 232 237 239 233 234 233 243 244 239 235 232 231 227 218 210 212 196 211 210 216 226 208 195 182 173 170
Height
1517 1517 1518 1519 1520 1521 1522 1522 1523 1524 1525 1525 1526 1527 1527 1528 1529 1530 1530 1531 1531 1532 1533 1534 1534 1535 1535 1536 1537 1538 1538 1539 1539 1540 1540 1541 1541 1542 1542 1543 1543 1543 1544
1516 1517 1518 1519 1520 1521 1522 1523 1523 1524 1525 1526 1526 1527 1528 1529 1529 1530 1531 1531 1532 1533 1534 1535 1535 1536 1537 1537 1538 1539 1540 1541 1541 1542 1542 1543 1543 1544 1544 1544 1545 1545 1546
1515 1516 1517 1519 1520 1521 1521 1522 1523 1524 1525 1526 1527 1527 1528 1529 1530 1530 1531 1532 1532 1533 1534 1535 1536 1537 1538 1539 1539 1540 1541 1542 1542 1543 1543 1544 1545 1545 1546 1546 1547 1547 1547
1516 1516 1517 1518 1519 1520 1521 1522 1523 1524 1525 1526 1527 1527 1528 1529 1530 1530 1531 1532 1533 1534 1535 1535 1536 1537 1538 1539 1540 1541 1542 1543 1544 1544 1545 1545 1546 1547 1547 1548 1548 1549 1549
1515 1516 1517 1518 1519 1520 1521 1522 1522 1523 1524 1525 1526 1527 1528 1529 1530 1530 1531 1532 1533 1534 1535 1536 1537 1538 1539 1539 1541 1542 1543 1544 1545 1545 1546 1546 1547 1548 1549 1549 1550 1550 1550
1514 1515 1516 1517 1518 1519 1520 1521 1522 1523 1524 1525 1526 1527 1528 1528 1529 1530 1530 1532 1533 1534 1535 1536 1536 1538 1539 1540 1541 1542 1543 1544 1545 1546 1547 1547 1548 1549 1549 1550 1551 1551 1552
1513 1514 1516 1517 1518 1518 1519 1520 1521 1522 1523 1524 1525 1526 1527 1528 1529 1529 1530 1531 1532 1533 1534 1536 1536 1537 1539 1540 1541 1543 1544 1545 1546 1546 1547 1548 1549 1550 1550 1551 1551 1552 1553
1513 1513 1515 1516 1517 1518 1518 1519 1520 1521 1522 1523 1524 1525 1526 1527 1528 1528 1529 1530 1531 1532 1534 1535 1536 1537 1538 1540 1541 1543 1544 1545 1546 1547 1547 1548 1549 1550 1551 1552 1552 1553 1554
1511 1512 1513 1514 1515 1516 1517 1518 1519 1520 1521 1522 1523 1524 1525 1525 1526 1527 1528 1529 1530 1531 1532 1534 1535 1537 1538 1539 1541 1542 1543 1545 1546 1547 1547 1549 1550 1551 1551 1552 1553 1554 1554
1510 1511 1512 1513 1514 1515 1516 1517 1518 1519 1520 1521 1521 1522 1523 1524 1525 1526 1527 1528 1529 1530 1531 1533 1534 1536 1537 1539 1540 1541 1543 1544 1545 1546 1547 1548 1550 1551 1551 1552 1553 1554 1555
1509 1510 1510 1511 1512 1513 1514 1515 1516 1517 1518 1519 1520 1520 1521 1522 1523 1524 1525 1526 1527 1528 1529 1531 1533 1534 1536 1538 1539 1540 1542 1543 1544 1545 1547 1548 1549 1550 1551 1552 1553 1554 1555
1506 1508 1509 1509 1510 1512 1513 1513 1514 1515 1517 1517 1518 1518 1519 1520 1521 1522 1523 1524 1525 1527 1528 1529 1531 1533 1534 1536 1538 1539 1540 1542 1543 1544 1546 1547 1548 1549 1550 1551 1552 1553 1554
1505 1506 1507 1508 1508 1509 1511 1512 1512 1513 1515 1516 1516 1517 1518 1518 1519 1520 1521 1522 1523 1525 1526 1527 1529 1530 1533 1534 1536 1537 1539 1540 1541 1543 1544 1546 1547 1548 1549 1550 1551 1552 1554
1503 1505 1505 1506 1507 1508 1509 1509 1510 1511 1512 1513 1514 1515 1516 1516 1517 1518 1519 1520 1521 1522 1524 1525 1527 1528 1530 1532 1534 1535 1537 1538 1540 1541 1542 1544 1545 1547 1548 1549 1550 1551 1553
1501 1503 1504 1504 1505 1506 1506 1507 1508 1509 1510 1511 1512 1513 1514 1514 1515 1516 1517 1518 1519 1520 1522 1523 1525 1526 1528 1530 1532 1533 1535 1537 1538 1539 1541 1542 1544 1545 1546 1547 1549 1550 1551
1499 1500 1501 1502 1503 1504 1504 1505 1506 1507 1507 1508 1509 1510 1511 1512 1513 1514 1514 1515 1517 1518 1519 1521 1522 1524 1525 1527 1529 1531 1532 1534 1536 1537 1539 1540 1542 1543 1545 1546 1547 1549 1550
1496 1496 1498 1499 1500 1501 1502 1502 1503 1504 1505 1506 1507 1508 1508 1509 1510 1511 1512 1513 1514 1516 1517 1518 1519 1521 1523 1525 1526 1528 1530 1531 1533 1535 1537 1538 1540 1541 1543 1544 1546 1547 1548
1493 1494 1495 1497 1498 1499 1500 1500 1501 1501 1502 1503 1504 1505 1506 1507 1507 1508 1509 1510 1512 1513 1514 1516 1517 1518 1520 1522 1523 1525 1527 1529 1531 1532 1534 1536 1537 1539 1540 1542 1544 1545 1546
1491 1492 1493 1494 1495 1496 1497 1497 1498 1499 1499 1500 1501 1502 1503 1503 1504 1505 1506 1508 1509 1510 1511 1513 1514 1516 1517 1519 1520 1522 1524 1526 1527 1529 1531 1533 1534 1536 1538 1540 1541 1543 1544
1488 1489 1490 1491 1492 1493 1494 1494 1495 1495 1496 1497 1498 1499 1500 1500 1501 1502 1503 1504 1506 1507 1508 1510 1511 1513 1515 1516 1517 1519 1521 1523 1525 1526 1528 1530 1532 1533 1535 1537 1538 1540 1542
1486 1487 1487 1488 1489 1490 1490 1491 1491 1492 1493 1494 1495 1496 1497 1497 1498 1499 1500 1501 1503 1504 1505 1507 1508 1509 1512 1513 1515 1516 1518 1520 1521 1523 1525 1527 1529 1530 1532 1534 1536 1537 1539
1483 1483 1484 1485 1486 1487 1487 1488 1489 1489 1490 1491 1492 1493 1494 1494 1495 1496 1497 1498 1499 1501 1502 1503 1505 1506 1508 1510 1512 1514 1515 1518 1517 1519 1521 1524 1525 1527 1529 1531 1532 1534 1536
1479 1480 1481 1482 1483 1483 1484 1485 1485 1486 1486 1488 1488 1489 1490 1491 1491 1492 1493 1494 1496 1497 1498 1500 1502 1503 1505 1507 1509 1511 1513 1513 1514 1516 1518 1520 1522 1523 1525 1527 1529 1531 1532
1477 1477 1478 1479 1480 1480 1481 1481 1481 1481 1482 1483 1484 1484 1485 1487 1488 1489 1489 1491 1492 1493 1494 1496 1498 1500 1502 1503 1505 1507 1509 1510 1511 1512 1514 1516 1518 1520 1521 1523 1525 1527 1529
1474 1474 1475 1476 1476 1477 1477 1478 1478 1478 1479 1479 1480 1481 1481 1482 1483 1485 1486 1487 1488 1489 1491 1492 1494 1496 1498 1499 1501 1503 1505 1507 1508 1509 1510 1512 1514 1515 1517 1519 1522 1523 1525
1471 1472 1472 1472 1473 1474 1474 1474 1474 1475 1475 1475 1476 1477 1477 1478 1479 1481 1482 1483 1484 1485 1487 1488 1490 1492 1494 1495 1497 1499 1501 1503 1503 1505 1507 1508 1509 1511 1513 1515 1518 1519 1521